Location: ??
(35.4627°N, 139.3695°E)
Time: 05:14:56
(UTC+00:00)

CZ-4C R/B - Pass Details

Date: 25 November 2020
Orbit: 620 x 1382 km, 63.4° (Epoch: 20 January)

Event Time Altitude Azimuth Distance (km) Brightness Sun altitude
Rises 20:28:40 0° 222° (SW) 2,940 4.8 -12.2°
Reaches altitude 10° 20:30:51 10° 226° (SW) 2,083 4.0 -11.8°
Maximum altitude 20:35:27 56° 305° (NW) 865 2.0 -10.9°
Drops below altitude 10° 20:40:53 10° 24° (NNE) 2,452 4.7 -9.8°
Sets 20:43:39 0° 28° (NNE) 3,515 5.5 -9.3°
